{"data":{"norad_id":48376,"intl_designator":"2021-038Z","name":"STARLINK-2610","alt_names":[],"object_type":"PAYLOAD","status":"ACTIVE","operator":null,"country":"US","launch_date":"2021-05-04","launch_site_code":"AFETR","launch_vehicle":null,"mission":null,"orbit_class":"UNKNOWN","rcs_meters":null,"size_class":null,"mass_kg":null,"dimensions":null,"purposes":["comms"],"wikipedia_slug":null,"has_3d_model":false,"image_url":null,"decayed_at":null,"tle_current":{"epoch":"2026-05-25T06:00:02.000160Z","epoch_age_seconds":60353,"freshness":"FRESH","line1":"1 48376U 21038Z   26145.25002315  .00002352  00000+0  54732-4 0  9994","line2":"2 48376  53.1599 351.0782 0001492  92.3517 187.7375 15.46770422  5866","mean_motion":15.46770422,"eccentricity":0.0001492,"inclination_deg":53.1599,"raan_deg":351.0782,"arg_perigee_deg":92.3517,"mean_anomaly_deg":187.7375,"bstar":5.4732e-5,"rev_number":586,"period_min":93.097203018536,"perigee_km":425.16579572394,"apogee_km":427.19620421513,"semimajor_km":6804.3179999695,"source":"CELESTRAK","updated_at":"2026-05-25T13:38:16.688545Z"}}}